WA6MHA-11 Weather Reports


Display with metric or nautical units.
time (UTC)temp
F
wind
direction
speed
MPH
gust
MPH
rain 1hr
in
rain 24hr
in
rain mn
in
humidity
%
barometer
mb
20260901055701 64 139 0.0 1.0 0.00 0.00 0.00 44 1015.5
20260901055300 65 33 0.0 1.0 0.00 0.00 0.00 43 1015.5
20260901054859 65 76 0.0 2.0 0.00 0.00 0.00 43 1015.5
20260901054458 65 137 1.0 2.0 0.00 0.00 0.00 43 1015.5
20260901053655 65 135 1.0 1.0 0.00 0.00 0.00 43 1015.4
20260901053254 65 135 1.0 2.0 0.00 0.00 0.00 43 1015.4
20260901052051 65 81 0.0 1.0 0.00 0.00 0.00 43 1015.4
20260901051652 65 137 1.0 2.0 0.00 0.00 0.00 42 1015.3
20260901051247 65 139 2.0 3.0 0.00 0.00 0.00 42 1015.4
20260901050846 66 137 2.0 2.0 0.00 0.00 0.00 42 1015.4
20260901050445 66 139 0.0 0.0 0.00 0.00 0.00 42 1015.3
20260901050044 66 137 0.0 1.0 0.00 0.00 0.00 42 1015.4
20260901045643 66 141 1.0 2.0 0.00 0.00 0.00 42 1015.4
20260901045241 66 74 0.0 0.0 0.00 0.00 0.00 42 1015.3
20260901044840 67 90 0.0 0.0 0.00 0.00 0.00 42 1015.3
20260901043636 67 279 1.0 1.0 0.00 0.00 0.00 41 1015.2
20260901043235 67 274 0.0 0.0 0.00 0.00 0.00 41 1015.1
20260901042833 67 274 0.0 0.0 0.00 0.00 0.00 41 1015.1
20260901042433 67 292 0.0 0.0 0.00 0.00 0.00 41 1015.0
20260901041630 67 184 0.0 0.0 0.00 0.00 0.00 40 1014.9
20260901041228 67 290 0.0 0.0 0.00 0.00 0.00 40 1014.9
20260901040827 68 270 0.0 1.0 0.00 0.00 0.00 39 1014.9
20260901040425 68 279 0.0 1.0 0.00 0.00 0.00 39 1014.8
20260901040024 68 288 1.0 1.0 0.00 0.00 0.00 39 1014.6
20260901035623 68 274 0.0 0.0 0.00 0.00 0.00 38 1014.6
20260901035223 68 299 0.0 1.0 0.00 0.00 0.00 38 1014.7
20260901034018 69 40 0.0 0.0 0.00 0.00 0.00 37 1014.5
20260901033618 70 83 0.0 0.0 0.00 0.00 0.00 37 1014.4
20260901033616 70 83 0.0 0.0 0.00 0.00 0.00 37 1014.4
20260901033215 70 81 0.0 1.0 0.00 0.00 0.00 37 1014.4
20260901032814 70 36 1.0 1.0 0.00 0.00 0.00 36 1014.3
20260901032413 70 191 1.0 1.0 0.00 0.00 0.00 36 1014.2
20260901032012 70 159 0.0 2.0 0.00 0.00 0.00 36 1014.2
20260901031610 70 137 1.0 3.0 0.00 0.00 0.00 35 1014.2
20260901030808 71 132 4.0 5.0 0.00 0.00 0.00 35 1014.2
20260901030406 71 135 3.0 6.0 0.00 0.00 0.00 34 1014.2
20260901025604 71 101 3.0 5.0 0.00 0.00 0.00 33 1014.0
20260901025203 72 92 4.0 4.0 0.00 0.00 0.00 33 1014.1
20260901024400 73 135 4.0 6.0 0.00 0.00 0.00 32 1013.9
20260901023958 73 135 4.0 5.0 0.00 0.00 0.00 31 1013.9
20260901023557 73 137 6.0 8.0 0.00 0.00 0.00 31 1013.9
20260901023156 74 135 5.0 6.0 0.00 0.00 0.00 30 1013.9
20260901022755 74 105 4.0 8.0 0.00 0.00 0.00 30 1013.9
20260901022353 75 128 5.0 8.0 0.00 0.00 0.00 29 1013.9
20260901021552 76 132 5.0 7.0 0.00 0.00 0.00 28 1013.9
20260901021150 76 150 3.0 7.0 0.00 0.00 0.00 28 1013.9
20260901020749 0 137 6.0 0.0 0.00 0.00 0.00
20260901015946 77 135 7.0 9.0 0.00 0.00 0.00 26 1013.8
20260901015545 77 135 7.0 9.0 0.00 0.00 0.00 26 1013.8
20260901015143 78 132 7.0 9.0 0.00 0.00 0.00 25 1013.8
20260901014742 79 130 7.0 9.0 0.00 0.00 0.00 25 1013.7
20260901014341 79 137 6.0 9.0 0.00 0.00 0.00 25 1013.7
20260901013939 79 135 6.0 10.0 0.00 0.00 0.00 24 1013.6
20260901013538 80 123 8.0 9.0 0.00 0.00 0.00 24 1013.7
20260901013136 80 135 8.0 11.0 0.00 0.00 0.00 23 1013.6
20260901012735 81 135 7.0 10.0 0.00 0.00 0.00 23 1013.6
20260901012334 81 135 8.0 11.0 0.00 0.00 0.00 23 1013.5
20260901011933 82 174 6.0 10.0 0.00 0.00 0.00 23 1013.5
20260901011535 83 159 4.0 11.0 0.00 0.00 0.00 23 1013.5
20260901011130 83 137 10.0 11.0 0.00 0.00 0.00 22 1013.6
20260901010729 84 135 9.0 11.0 0.00 0.00 0.00 22 1013.6
20260901010328 84 132 8.0 10.0 0.00 0.00 0.00 21 1013.6
20260901005927 85 135 9.0 9.0 0.00 0.00 0.00 22 1013.7
20260901005526 85 148 4.0 9.0 0.00 0.00 0.00 21 1013.7
20260901004722 86 139 4.0 7.0 0.00 0.00 0.00 22 1013.6
20260901004321 86 135 5.0 9.0 0.00 0.00 0.00 22 1013.6
20260901003920 87 137 9.0 9.0 0.00 0.00 0.00 21 1013.6
20260901003519 89 135 5.0 5.0 0.00 0.00 0.00 21 1013.5
20260901002314 90 182 8.0 9.0 0.00 0.00 0.00 21 1013.6
20260901001913 90 148 3.0 8.0 0.00 0.00 0.00 21 1013.7
20260901001512 91 177 6.0 9.0 0.00 0.00 0.00 21 1013.6
20260901001111 91 180 6.0 11.0 0.00 0.00 0.00 21 1013.6
20260901000710 91 177 9.0 11.0 0.00 0.00 0.00 21 1013.6
20260901000313 91 189 9.0 9.0 0.00 0.00 0.00 21 1013.6
20260831235907 92 135 7.0 7.0 0.00 0.00 0.00 21 1013.6
20260831234302 93 120 2.0 6.0 0.00 0.00 0.00 21 1013.6
20260831233901 92 121 3.0 9.0 0.00 0.00 0.00 21 1013.6
20260831233459 92 183 2.0 8.0 0.00 0.00 0.00 21 1013.6
20260831233058 91 127 3.0 11.0 0.00 0.00 0.00 21 1013.6
20260831232256 91 180 1.0 10.0 0.00 0.00 0.00 21 1013.6
20260831231854 91 135 3.0 7.0 0.00 0.00 0.00 21 1013.6
20260831231454 91 165 4.0 11.0 0.00 0.00 0.00 22 1013.7
20260831231052 91 135 10.0 12.0 0.00 0.00 0.00 21 1013.7
20260831230250 90 144 5.0 11.0 0.00 0.00 0.00 22 1013.9
20260831225848 90 139 9.0 11.0 0.00 0.00 0.00 22 1013.8
20260831225447 90 135 10.0 12.0 0.00 0.00 0.00 21 1013.8
20260831224644 90 130 9.0 12.0 0.00 0.00 0.00 22 1013.9
20260831224242 90 144 6.0 14.0 0.00 0.00 0.00 22 1014.1
20260831223841 92 141 10.0 12.0 0.00 0.00 0.00 22 1014.0
20260831223440 91 177 7.0 12.0 0.00 0.00 0.00 22 1013.9
20260831223039 92 180 7.0 12.0 0.00 0.00 0.00 22 1013.9
20260831222638 92 148 8.0 12.0 0.00 0.00 0.00 22 1014.1
20260831222236 92 144 9.0 10.0 0.00 0.00 0.00 22 1014.1
20260831221835 92 135 9.0 11.0 0.00 0.00 0.00 22 1014.1
20260831221434 92 144 7.0 13.0 0.00 0.00 0.00 22 1014.2
20260831221033 93 137 13.0 13.0 0.00 0.00 0.00 22 1014.2
20260831220633 93 189 6.0 12.0 0.00 0.00 0.00 22 1014.3
20260831220230 93 171 3.0 10.0 0.00 0.00 0.00 21 1014.3
20260831215828 94 195 9.0 9.0 0.00 0.00 0.00 22 1014.3
20260831215427 93 162 4.0 9.0 0.00 0.00 0.00 21 1014.3
20260831215026 93 157 3.0 8.0 0.00 0.00 0.00 22 1014.4
20260831214629 94 119 9.0 9.0 0.00 0.00 0.00 22 1014.4
20260831213822 93 155 3.0 11.0 0.00 0.00 0.00 22 1014.5
20260831212618 93 162 4.0 12.0 0.00 0.00 0.00 22 1014.6
20260831211816 94 127 6.0 11.0 0.00 0.00 0.00 22 1014.7
20260831211415 94 137 9.0 10.0 0.00 0.00 0.00 22 1014.7
20260831211013 94 148 4.0 11.0 0.00 0.00 0.00 22 1014.7
20260831210210 95 162 6.0 12.0 0.00 0.00 0.00 22 1014.8
20260831205809 95 186 7.0 11.0 0.00 0.00 0.00 23 1014.8
20260831205408 95 182 7.0 11.0 0.00 0.00 0.00 23 1014.8
20260831203803 95 173 6.0 11.0 0.00 0.00 0.00 23 1014.9
20260831203402 95 186 11.0 11.0 0.00 0.00 0.00 23 1014.9
20260831203000 95 190 6.0 13.0 0.00 0.00 0.00 23 1014.8
20260831202559 95 173 6.0 12.0 0.00 0.00 0.00 23 1014.9
20260831202157 96 163 3.0 9.0 0.00 0.00 0.00 23 1014.9
20260831200954 96 176 4.0 8.0 0.00 0.00 0.00 24 1014.9
20260831200553 95 164 7.0 9.0 0.00 0.00 0.00 24 1014.9
20260831200151 95 177 6.0 10.0 0.00 0.00 0.00 24 1014.9
20260831195749 95 192 8.0 9.0 0.00 0.00 0.00 24 1015.0
20260831195348 95 182 6.0 10.0 0.00 0.00 0.00 25 1015.0
20260831194948 95 166 5.0 10.0 0.00 0.00 0.00 25 1015.0
20260831194546 95 177 5.0 11.0 0.00 0.00 0.00 25 1015.1
20260831193342 92 117 9.0 10.0 0.00 0.00 0.00 26 1015.2
20260831192539 93 182 4.0 8.0 0.00 0.00 0.00 26 1015.4
20260831191737 93 132 8.0 9.0 0.00 0.00 0.00 27 1015.4
20260831191336 93 162 3.0 11.0 0.00 0.00 0.00 27 1015.4
20260831190934 94 182 3.0 7.0 0.00 0.00 0.00 27 1015.5
20260831190533 93 130 4.0 7.0 0.00 0.00 0.00 27 1015.4
20260831185330 91 135 4.0 6.0 0.00 0.00 0.00 28 1015.4
20260831184526 91 130 7.0 8.0 0.00 0.00 0.00 28 1015.4
20260831184125 91 144 4.0 7.0 0.00 0.00 0.00 28 1015.5
20260831183724 91 227 5.0 6.0 0.00 0.00 0.00 28 1015.5
20260831183323 90 196 1.0 6.0 0.00 0.00 0.00 28 1015.6
20260831182922 89 170 3.0 7.0 0.00 0.00 0.00 28 1015.6
20260831182521 87 208 0.0 9.0 0.00 0.00 0.00 29 1015.6
20260831181723 88 144 8.0 8.0 0.00 0.00 0.00 29 1015.7
20260831181316 87 135 9.0 10.0 0.00 0.00 0.00 29 1015.6
20260831180915 89 123 9.0 10.0 0.00 0.00 0.00 29 1015.6
20260831180514 89 186 4.0 8.0 0.00 0.00 0.00 29 1015.7
20260831180114 87 180 7.0 9.0 0.00 0.00 0.00 29 1015.7
20260831175713 86 50 4.0 11.0 0.00 0.00 0.00 30 1015.7
20260831175310 88 135 9.0 9.0 0.00 0.00 0.00 30 1015.7
20260831174909 88 175 4.0 7.0 0.00 0.00 0.00 30 1015.7
20260831174508 88 67 1.0 9.0 0.00 0.00 0.00 30 1015.7
20260831174107 86 135 5.0 7.0 0.00 0.00 0.00 30 1015.7
20260831173708 86 105 3.0 7.0 0.00 0.00 0.00 31 1015.7
20260831173706 86 105 3.0 7.0 0.00 0.00 0.00 31 1015.7
20260831173303 88 117 7.0 7.0 0.00 0.00 0.00 31 1015.7
20260831172903 87 195 1.0 6.0 0.00 0.00 0.00 31 1015.8
20260831172501 86 126 6.0 9.0 0.00 0.00 0.00 32 1015.6
20260831172100 87 185 5.0 5.0 0.00 0.00 0.00 33 1015.7
20260831171659 86 137 4.0 7.0 0.00 0.00 0.00 33 1015.7
20260831171257 85 191 1.0 6.0 0.00 0.00 0.00 33 1015.6
20260831170855 84 117 6.0 7.0 0.00 0.00 0.00 33 1015.7
20260831170454 84 119 6.0 7.0 0.00 0.00 0.00 34 1015.7
20260831170054 85 148 5.0 9.0 0.00 0.00 0.00 34 1015.7
20260831165251 84 56 0.0 7.0 0.00 0.00 0.00 35 1015.6
20260831164850 83 135 7.0 7.0 0.00 0.00 0.00 36 1015.5
20260831164448 83 135 7.0 7.0 0.00 0.00 0.00 36 1015.5
20260831164048 84 101 2.0 4.0 0.00 0.00 0.00 37 1015.5
20260831163646 82 301 1.0 7.0 0.00 0.00 0.00 37 1015.5
20260831162843 82 117 6.0 9.0 0.00 0.00 0.00 38 1015.4
20260831161639 82 308 1.0 10.0 0.00 0.00 0.00 40 1015.5
20260831161238 82 109 1.0 5.0 0.00 0.00 0.00 40 1015.5
20260831160837 81 135 5.0 5.0 0.00 0.00 0.00 41 1015.5
20260831160436 80 96 4.0 4.0 0.00 0.00 0.00 42 1015.4
20260831160034 78 51 2.0 6.0 0.00 0.00 0.00 42 1015.4
20260831155632 78 95 1.0 6.0 0.00 0.00 0.00 42 1015.5
20260831154429 77 37 1.0 7.0 0.00 0.00 0.00 43 1015.4
20260831153627 76 121 1.0 4.0 0.00 0.00 0.00 44 1015.3
20260831153225 76 87 5.0 6.0 0.00 0.00 0.00 45 1015.4
20260831152824 76 74 3.0 4.0 0.00 0.00 0.00 44 1015.3
20260831151620 75 135 5.0 6.0 0.00 0.00 0.00 45 1015.2
20260831151219 74 157 1.0 3.0 0.00 0.00 0.00 46 1015.2
20260831150817 74 83 3.0 3.0 0.00 0.00 0.00 46 1015.3
20260831150416 74 56 0.0 1.0 0.00 0.00 0.00 46 1015.2
20260831145614 71 230 0.0 0.0 0.00 0.00 0.00 47 1015.3
20260831145213 70 40 0.0 1.0 0.00 0.00 0.00 48 1015.3
20260831144811 69 45 0.0 0.0 0.00 0.00 0.00 48 1015.2
20260831144409 68 40 0.0 0.0 0.00 0.00 0.00 48 1015.1
20260831143607 67 38 0.0 0.0 0.00 0.00 0.00 49 1015.1
20260831142805 66 42 0.0 1.0 0.00 0.00 0.00 49 1015.1
20260831142403 65 344 0.0 1.0 0.00 0.00 0.00 49 1014.8
20260831142001 65 42 1.0 1.0 0.00 0.00 0.00 49 1014.9
20260831141600 64 301 0.0 0.0 0.00 0.00 0.00 50 1014.8
20260831140758 63 306 0.0 0.0 0.00 0.00 0.00 50 1014.8
20260831135955 62 301 0.0 0.0 0.00 0.00 0.00 50 1014.7
20260831135554 62 308 0.0 0.0 0.00 0.00 0.00 50 1014.5
20260831135153 62 301 0.0 0.0 0.00 0.00 0.00 50 1014.5
20260831134752 62 227 0.0 0.0 0.00 0.00 0.00 49 1014.4
20260831134350 61 236 0.0 0.0 0.00 0.00 0.00 49 1014.4
20260831133146 62 274 0.0 0.0 0.00 0.00 0.00 49 1014.3
20260831132344 62 270 0.0 1.0 0.00 0.00 0.00 49 1014.3
20260831131943 62 283 1.0 1.0 0.00 0.00 0.00 49 1014.3
20260831131542 62 330 0.0 0.0 0.00 0.00 0.00 49 1014.4
20260831131140 62 335 0.0 0.0 0.00 0.00 0.00 49 1014.4
20260831130738 62 308 0.0 1.0 0.00 0.00 0.00 48 1014.3
20260831130337 62 283 1.0 1.0 0.00 0.00 0.00 48 1014.3
20260831125936 62 310 0.0 0.0 0.00 0.00 0.00 48 1014.3
20260831125134 62 297 0.0 0.0 0.00 0.00 0.00 48 1014.2
20260831124733 62 308 0.0 0.0 0.00 0.00 0.00 48 1014.2
20260831124331 62 279 0.0 1.0 0.00 0.00 0.00 48 1014.2
20260831123127 63 308 0.0 0.0 0.00 0.00 0.00 48 1014.2
20260831122726 63 303 0.0 0.0 0.00 0.00 0.00 48 1014.1
20260831122325 63 233 0.0 0.0 0.00 0.00 0.00 47 1014.2
20260831121923 63 235 0.0 0.0 0.00 0.00 0.00 47 1014.1
20260831121522 63 333 0.0 0.0 0.00 0.00 0.00 47 1014.2
20260831121121 64 328 0.0 0.0 0.00 0.00 0.00 47 1014.1
20260831120720 64 288 0.0 0.0 0.00 0.00 0.00 47 1014.2
20260831120318 64 279 0.0 0.0 0.00 0.00 0.00 47 1014.1
20260831115918 64 283 0.0 0.0 0.00 0.00 0.00 47 1014.1
20260831115515 64 297 0.0 0.0 0.00 0.00 0.00 47 1014.1
20260831113911 64 270 0.0 0.0 0.00 0.00 0.00 46 1014.1
20260831113509 65 270 0.0 0.0 0.00 0.00 0.00 46 1014.1
20260831113108 65 237 0.0 1.0 0.00 0.00 0.00 46 1014.1
20260831112706 65 283 1.0 1.0 0.00 0.00 0.00 46 1014.1
20260831112307 65 303 0.0 0.0 0.00 0.00 0.00 46 1014.2
20260831111102 65 231 0.0 0.0 0.00 0.00 0.00 45 1014.2
20260831110259 65 333 0.0 1.0 0.00 0.00 0.00 45 1014.3
20260831105900 66 344 1.0 1.0 0.00 0.00 0.00 45 1014.3
20260831105456 66 328 0.0 0.0 0.00 0.00 0.00 45 1014.3
20260831105055 66 42 0.0 1.0 0.00 0.00 0.00 45 1014.3
20260831104656 0 321 0.0 2.0 0.00 0.00 0.00 45 1014.3
20260831104654 66 321 0.0 2.0 0.00 0.00 0.00 45 1014.3
20260831104252 66 10 1.0 2.0 0.00 0.00 0.00 45 1014.3
20260831103852 666 40 2.0 2.0 0.00 0.00 0.00 45 101.4
20260831103450 66 189 0.0 2.0 0.00 0.00 0.00 45 1014.2
20260831103050 66 135 2.0 2.0 0.00 0.00 0.00 45 1014.3
20260831102246 66 135 1.0 2.0 0.00 0.00 0.00 45 1014.2
20260831101845 67 121 2.0 2.0 0.00 0.00 0.00 45 1014.2
20260831101042 67 135 2.0 2.0 0.00 0.00 0.00 44 1014.4
20260831100641 67 139 2.0 2.0 0.00 0.00 0.00 44 1014.4
20260831100240 67 135 2.0 2.0 0.00 0.00 0.00 44 1014.3
20260831095437 67 182 1.0 2.0 0.00 0.00 0.00 44 1014.2
20260831095036 67 148 1.0 2.0 0.00 0.00 0.00 44 1014.2
20260831094635 67 173 1.0 2.0 0.00 0.00 0.00 44 1014.3
20260831094233 67 135 1.0 1.0 0.00 0.00 0.00 44 1014.3
20260831093832 67 135 0.0 0.0 0.00 0.00 0.00 44 1014.3
20260831093431 67 135 0.0 1.0 0.00 0.00 0.00 44 1014.3
20260831093029 67 135 0.0 1.0 0.00 0.00 0.00 44 1014.2
20260831092632 67 137 1.0 2.0 0.00 0.00 0.00 44 1014.2
20260831091826 67 135 2.0 4.0 0.00 0.00 0.00 44 1014.1
20260831090221 67 177 1.0 3.0 0.00 0.00 0.00 43 1014.1
20260831085819 67 135 0.0 2.0 0.00 0.00 0.00 43 1014.1
20260831085418 67 189 1.0 3.0 0.00 0.00 0.00 43 1014.1
20260831084616 68 135 2.0 3.0 0.00 0.00 0.00 43 1014.2
20260831083812 68 186 0.0 2.0 0.00 0.00 0.00 43 1014.2
20260831083644 68 175 2.0 3.0 0.00 0.00 0.00 43 1014.2
20260831083414 68 175 2.0 3.0 0.00 0.00 0.00 43 1014.2
20260831082609 68 191 0.0 2.0 0.00 0.00 0.00 42 1014.2
20260831082208 68 137 2.0 3.0 0.00 0.00 0.00 42 1014.1
20260831081806 68 135 2.0 2.0 0.00 0.00 0.00 42 1014.1
20260831081441 68 157 1.0 3.0 0.00 0.00 0.00 42 1014.0
20260831081406 68 157 1.0 3.0 0.00 0.00 0.00 42 1014.0
20260831080603 68 135 2.0 2.0 0.00 0.00 0.00 42 1014.0
20260831080201 68 139 2.0 2.0 0.00 0.00 0.00 42 1014.0
20260831075800 68 135 2.0 2.0 0.00 0.00 0.00 42 1013.9
20260831075358 68 114 1.0 2.0 0.00 0.00 0.00 42 1013.9
20260831074957 68 135 1.0 2.0 0.00 0.00 0.00 42 1014.0
20260831074557 69 135 1.0 2.0 0.00 0.00 0.00 42 1013.9
20260831074155 69 135 1.0 2.0 0.00 0.00 0.00 42 1014.0
20260831073754 69 135 2.0 3.0 0.00 0.00 0.00 41 1013.8
20260831073353 69 117 3.0 3.0 0.00 0.00 0.00 41 1013.8
20260831072951 69 137 2.0 3.0 0.00 0.00 0.00 41 1013.7
20260831072549 69 135 3.0 4.0 0.00 0.00 0.00 41 1013.7
20260831072148 69 126 3.0 3.0 0.00 0.00 0.00 41 1013.7
20260831071747 69 135 1.0 2.0 0.00 0.00 0.00 41 1013.6
20260831071346 69 114 1.0 3.0 0.00 0.00 0.00 41 1013.7
20260831070946 69 137 1.0 3.0 0.00 0.00 0.00 41 1013.7
20260831070543 70 135 3.0 3.0 0.00 0.00 0.00 41 1013.7
20260831070142 70 130 2.0 3.0 0.00 0.00 0.00 40 1013.7
20260831065742 70 135 3.0 3.0 0.00 0.00 0.00 40 1013.7
20260831065340 70 135 2.0 3.0 0.00 0.00 0.00 40 1013.7
20260831064538 70 110 2.0 2.0 0.00 0.00 0.00 40 1013.8
20260831064135 70 60 1.0 2.0 0.00 0.00 0.00 40 1013.7
20260831063333 70 45 0.0 1.0 0.00 0.00 0.00 40 1013.7
20260831062932 71 40 0.0 1.0 0.00 0.00 0.00 40 1013.8
20260831062531 71 135 1.0 2.0 0.00 0.00 0.00 40 1013.7
20260831062129 71 137 1.0 2.0 0.00 0.00 0.00 39 1013.7
20260831061727 71 171 1.0 2.0 0.00 0.00 0.00 39 1013.8
20260831061326 72 135 2.0 2.0 0.00 0.00 0.00 39 1013.8
20260831060928 72 135 1.0 1.0 0.00 0.00 0.00 39 1013.8